COSMOS 886 DEB *, 13943

Orbit data source: Space-Track

COSMOS 886 DEB *, 13943 is space debris in LEO originally from a launch on Mon, 27 Dec 1976 UTC launched from the Tyuratam Missile And Space Complex (TTMTR). Debris objects in space refer to the collection of defunct objects orbiting the Earth. Examples of debris include non-operational satellites, rocket bodies, and fragments generated from explosions, collisions, or faulty payload assembly.

Loading next visibility...
Identifier
13943, 1976-126BM
Orbit
LEO
Country
Flag of CISCIS
Related business
Manufacturer
Unknown
Mission
Spacecraft
Bus & Motor
Unknown
Mass
Unknown
Launch date (UTC)
1976-12-27 (49 years ago)
Launch vehicle
Unknown
Launch site
Tyuratam Missile And Space Complex (TTMTR)
Object type
Payload
Rocket body
Debris
Shape & HBR
Unknown shape, 0.1 m
Radar Cross Section
Small (<0.1 m²)

Expand to show TLE details & history
Last TLE update: 9 hours ago

TLE from 9 hours ago
0 COSMOS 886 DEB *
1 13943U 76126BM  26130.11956100  .00002889  00000-0  97494-3 0  9990
2 13943  65.5754  39.7539 0068678 303.2232 164.0619 14.37157300137841
Epoch: 2026-05-10T02:52Z
TLE epoch observation values (Epoch: 2026-05-10T02:52:10.070Z)
Latitude
60.38855°
Longitude
-103.85459°
Altitude
824.472 km
Speed
7.422 km/s
True Right ascension
11h 08m 27s
True Declination
60° 14' 31"
Sunlit
Object was in daylight at epoch
Visualization orbit readout
Latitude
Unknown
Longitude
Unknown
Altitude
Unknown
Speed
Unknown
Apparent Right ascension
Unknown
Apparent Declination
Unknown
Sunlit
N/A
Visualization observer readout
Local Sidereal Time
20:33:38
Azimuth
Unknown
Elevation
Unknown
Doppler factor
Unknown
Orbital elements
Apogee altitude
815.477 km
Perigee altitude
717.342 km
Semi-major axis
7,144.547 km
Eccentricity
0.00687
Inclination
65.5754°
RAAN
39.7539°
Arg. of periapsis
303.2232°
True anomaly
164.27624°
Mean anomaly
164.0619°
Eccentric anomaly
164.16924°
Mean motion
3.59403 °/min
Orbital period
100.17 mins
BSTAR
0.00097494
Loading maneuver chart data...
Computing Atmospheric mass density...
Loading historical data...
Loading historical data...
Loading historical data...
Loading historical data...
Loading historical data...
Loading historical data...
Loading historical data...

Documentation

Showing up to 5 results
|